EA1QW Weather Reports


Display with metric or nautical units.
time (UTC)temp
F
wind
direction
speed
MPH
gust
MPH
rain 1hr
in
rain 24hr
in
rain mn
in
humidity
%
barometer
mb
20260905014523 71 345 0.0 0.0 0.00 0.04 0.00 92 1021.3
20260905014010 71 345 0.0 0.0 0.00 0.04 0.00 93 1021.4
20260905013518 71 345 0.0 0.0 0.00 0.04 0.00 92 1021.4
20260905013047 71 345 0.0 0.0 0.00 0.04 0.00 92 1021.4
20260905012516 71 345 0.0 1.0 0.00 0.04 0.00 92 1021.5
20260905012017 71 345 0.0 1.0 0.00 0.04 0.00 92 1021.5
20260905011546 71 345 0.0 0.0 0.00 0.04 0.00 92 1021.5
20260905011013 71 345 0.0 0.0 0.00 0.04 0.00 92 1021.6
20260905010520 71 345 0.0 0.0 0.00 0.04 0.00 92 1021.7
20260905010027 71 345 0.0 0.0 0.00 0.04 0.00 92 1021.8
20260905005515 71 345 0.0 0.0 0.00 0.04 0.00 92 1021.9
20260905005022 71 345 0.0 1.0 0.00 0.04 0.00 92 1021.9
20260905004511 71 345 0.0 1.0 0.00 0.04 0.00 92 1021.9
20260905004018 71 345 0.0 0.0 0.00 0.04 0.00 92 1021.8
20260905003527 71 345 0.0 0.0 0.00 0.04 0.00 92 1021.8
20260905003035 71 345 0.0 2.0 0.00 0.04 0.00 92 1021.8
20260905002523 71 345 0.0 3.0 0.00 0.04 0.00 92 1021.7
20260905002011 71 345 1.0 3.0 0.00 0.04 0.00 92 1021.7
20260905001519 71 345 0.0 2.0 0.00 0.04 0.00 92 1021.7
20260905001027 71 345 1.0 2.0 0.00 0.04 0.00 92 1021.6
20260905000515 71 345 0.0 1.0 0.00 0.04 0.00 92 1021.7
20260905000022 71 345 0.0 3.0 0.00 0.04 0.01 92 1021.6
20260904235514 71 345 1.0 3.0 0.00 0.04 0.01 92 1021.6
20260904235019 71 345 0.0 4.0 0.00 0.04 0.01 92 1021.7
20260904234527 71 345 2.0 4.0 0.00 0.04 0.01 92 1021.7
20260904234034 71 345 1.0 3.0 0.00 0.04 0.01 92 1021.7
20260904233522 71 345 1.0 2.0 0.00 0.04 0.01 92 1021.7
20260904233009 71 345 0.0 2.0 0.00 0.04 0.01 92 1021.7
20260904232518 71 345 0.0 3.0 0.00 0.04 0.01 92 1021.6
20260904232022 71 345 0.0 3.0 0.00 0.04 0.01 92 1021.6
20260904231530 71 345 0.0 4.0 0.00 0.04 0.01 92 1021.6
20260904231038 71 345 0.0 4.0 0.00 0.04 0.01 92 1021.6
20260904230526 71 345 0.0 3.0 0.00 0.04 0.01 92 1021.6
20260904230033 71 345 1.0 3.0 0.00 0.04 0.01 91 1021.7
20260904225521 71 345 0.0 1.0 0.00 0.04 0.01 91 1021.7
20260904225009 71 345 0.0 2.0 0.00 0.04 0.01 91 1021.7
20260904224517 71 345 0.0 2.0 0.00 0.04 0.01 91 1021.7
20260904224025 71 345 0.0 0.0 0.00 0.04 0.01 91 1021.7
20260904223512 71 345 0.0 3.0 0.00 0.04 0.01 91 1021.8
20260904223018 71 345 0.0 3.0 0.00 0.04 0.01 91 1021.8
20260904222526 71 344 1.0 3.0 0.00 0.04 0.01 91 1021.8
20260904222014 71 344 1.0 3.0 0.00 0.04 0.01 91 1021.8
20260904221544 71 344 1.0 3.0 0.00 0.04 0.01 91 1021.9
20260904221011 71 344 2.0 3.0 0.00 0.04 0.01 91 1021.9
20260904220519 71 343 1.0 2.0 0.00 0.04 0.01 90 1022.1
20260904220047 71 343 0.0 2.0 0.00 0.04 0.01 90 1022.2
20260904215514 71 343 0.0 2.0 0.00 0.04 0.01 90 1022.4
20260904215021 71 343 0.0 3.0 0.00 0.04 0.01 90 1022.4
20260904214549 71 343 0.0 3.0 0.00 0.04 0.01 91 1022.5
20260904214016 71 343 2.0 3.0 0.00 0.04 0.01 90 1022.4
20260904213524 71 340 0.0 1.0 0.00 0.04 0.01 90 1022.4
20260904213011 71 340 0.0 0.0 0.00 0.04 0.01 90 1022.5
20260904212520 71 340 0.0 0.0 0.00 0.04 0.01 90 1022.4
20260904212029 71 340 0.0 0.0 0.00 0.04 0.01 91 1022.4
20260904211516 71 340 0.0 0.0 0.00 0.04 0.01 91 1022.5
20260904211025 71 340 0.0 0.0 0.00 0.04 0.01 91 1022.5
20260904210514 71 340 0.0 0.0 0.00 0.04 0.01 91 1022.6
20260904210021 71 340 0.0 0.0 0.00 0.04 0.01 91 1022.6
20260904205509 71 340 0.0 0.0 0.00 0.04 0.01 91 1022.7
20260904205015 71 340 0.0 0.0 0.00 0.04 0.01 91 1022.6
20260904204524 71 340 0.0 0.0 0.00 0.04 0.01 91 1022.6
20260904204032 71 340 0.0 0.0 0.00 0.04 0.01 91 1022.5
20260904203520 71 340 0.0 0.0 0.00 0.04 0.01 91 1022.4
20260904203048 71 340 0.0 0.0 0.00 0.04 0.01 91 1022.2
20260904202516 71 340 0.0 0.0 0.00 0.04 0.01 91 1022.4
20260904202022 71 340 0.0 0.0 0.00 0.04 0.01 91 1022.4
20260904201510 71 340 0.0 0.0 0.00 0.04 0.01 91 1022.5
20260904201018 71 340 0.0 0.0 0.00 0.04 0.01 91 1022.4
20260904200525 71 340 0.0 0.0 0.00 0.04 0.01 91 1022.3
20260904200033 71 340 0.0 0.0 0.00 0.04 0.01 91 1022.2
20260904195521 71 340 0.0 0.0 0.00 0.04 0.01 91 1022.2
20260904195027 71 340 0.0 0.0 0.00 0.04 0.01 91 1021.8
20260904194516 71 340 0.0 0.0 0.00 0.04 0.01 91 1021.6
20260904194024 71 340 0.0 2.0 0.00 0.04 0.01 91 1021.6
20260904193511 71 340 0.0 2.0 0.00 0.04 0.01 91 1021.4
20260904193016 71 340 0.0 0.0 0.00 0.04 0.01 91 1021.3
20260904192525 71 340 0.0 3.0 0.00 0.04 0.01 90 1021.1
20260904192013 71 340 1.0 3.0 0.00 0.04 0.01 90 1021.0
20260904191520 72 340 0.0 3.0 0.00 0.04 0.01 90 1021.0
20260904191008 71 336 0.0 2.0 0.00 0.04 0.01 90 1020.9
20260904190517 71 336 0.0 4.0 0.00 0.04 0.01 89 1020.9
20260904190025 72 336 1.0 4.0 0.00 0.04 0.01 90 1021.0
20260904185513 72 335 0.0 4.0 0.00 0.04 0.01 90 1021.0
20260904185022 72 335 2.0 4.0 0.00 0.04 0.01 89 1021.0
20260904184530 72 313 0.0 3.0 0.00 0.04 0.01 89 1021.2
20260904184015 72 312 0.0 4.0 0.00 0.04 0.01 89 1021.1
20260904183522 72 312 2.0 4.0 0.00 0.04 0.01 89 1021.0
20260904183010 72 311 0.0 3.0 0.00 0.04 0.01 89 1021.1
20260904182518 72 311 1.0 5.0 0.00 0.04 0.01 89 1021.1
20260904182026 72 311 1.0 5.0 0.00 0.04 0.01 89 1021.2
20260904181514 72 301 1.0 3.0 0.00 0.04 0.01 89 1021.2
20260904181023 72 301 2.0 3.0 0.00 0.04 0.01 88 1021.2
20260904180511 72 301 0.0 3.0 0.00 0.04 0.01 88 1021.1
20260904180017 72 301 0.0 1.0 0.00 0.04 0.01 88 1021.3
20260904175509 73 301 0.0 2.0 0.00 0.04 0.01 88 1021.4
20260904175012 73 301 0.0 3.0 0.00 0.04 0.01 88 1021.2
20260904174520 73 301 1.0 3.0 0.00 0.04 0.01 88 1021.1
20260904174011 73 301 0.0 4.0 0.00 0.04 0.01 88 1021.2
20260904173520 72 301 1.0 4.0 0.00 0.04 0.01 87 1021.4
20260904173021 72 301 1.0 2.0 0.00 0.04 0.01 87 1021.4
20260904172509 72 301 1.0 2.0 0.00 0.04 0.01 87 1021.3
20260904172017 72 301 0.0 1.0 0.00 0.04 0.01 87 1021.2
20260904171547 72 301 0.0 2.0 0.00 0.04 0.01 87 1021.3
20260904171014 72 301 0.0 3.0 0.00 0.04 0.01 87 1021.2
20260904170521 72 301 0.0 3.0 0.00 0.04 0.01 88 1021.2
20260904170009 72 301 0.0 3.0 0.00 0.04 0.01 88 1021.4
20260904165517 72 301 0.0 4.0 0.00 0.04 0.01 89 1021.3
20260904165044 72 301 0.0 4.0 0.00 0.04 0.01 89 1021.3
20260904164532 72 301 0.0 1.0 0.00 0.04 0.01 90 1021.3
20260904164032 72 301 0.0 5.0 0.00 0.04 0.01 90 1021.3
20260904163519 72 301 1.0 5.0 0.00 0.04 0.01 91 1021.4
20260904163012 72 298 0.0 3.0 0.00 0.04 0.01 91 1021.4
20260904162515 72 298 0.0 4.0 0.00 0.04 0.01 92 1021.2
20260904162023 72 298 1.0 5.0 0.00 0.04 0.01 92 1021.1
20260904161515 72 298 2.0 5.0 0.00 0.04 0.01 92 1021.1
20260904161024 72 299 2.0 5.0 0.00 0.04 0.01 92 1021.2
20260904160512 72 299 2.0 5.0 0.00 0.04 0.01 92 1021.1
20260904160020 72 296 1.0 5.0 0.00 0.04 0.01 92 1021.1
20260904155526 72 286 2.0 8.0 0.00 0.04 0.01 91 1021.3
20260904155015 72 274 4.0 8.0 0.00 0.04 0.01 91 1021.2
20260904154523 72 276 3.0 9.0 0.00 0.04 0.01 91 1021.1
20260904154010 72 279 1.0 9.0 0.00 0.04 0.01 91 1021.1
20260904153538 72 291 3.0 8.0 0.00 0.04 0.01 91 1020.8
20260904153046 72 281 3.0 7.0 0.00 0.04 0.01 91 1020.9
20260904152512 72 283 3.0 7.0 0.00 0.04 0.01 90 1020.8
20260904152019 72 306 3.0 6.0 0.00 0.04 0.01 90 1020.8
20260904151525 73 283 3.0 7.0 0.00 0.04 0.01 90 1020.7
20260904151013 73 284 2.0 9.0 0.00 0.04 0.01 90 1020.7
20260904150521 73 294 2.0 9.0 0.00 0.04 0.01 90 1020.7
20260904150008 73 281 3.0 9.0 0.00 0.04 0.01 89 1020.7
20260904145517 73 309 5.0 9.0 0.00 0.04 0.01 89 1020.6
20260904145023 73 299 3.0 6.0 0.00 0.04 0.01 89 1020.7
20260904144511 73 284 3.0 7.0 0.00 0.04 0.01 89 1020.6
20260904144018 73 315 4.0 6.0 0.00 0.04 0.01 89 1020.6
20260904143546 73 300 0.0 7.0 0.00 0.04 0.01 90 1020.4
20260904143013 73 298 3.0 8.0 0.00 0.04 0.01 89 1020.5
20260904142520 73 296 3.0 8.0 0.00 0.04 0.01 89 1020.4
20260904142049 73 322 2.0 8.0 0.00 0.04 0.01 89 1020.3
20260904141537 73 290 3.0 7.0 0.00 0.04 0.01 88 1020.3
20260904141024 74 304 2.0 6.0 0.00 0.04 0.01 88 1020.3
20260904140512 74 311 4.0 6.0 0.00 0.04 0.01 88 1020.2
20260904140018 74 335 2.0 6.0 0.00 0.04 0.01 88 1020.2
20260904135527 74 304 3.0 6.0 0.00 0.04 0.01 88 1020.2
20260904135016 73 306 3.0 6.0 0.00 0.04 0.01 88 1020.1
20260904134524 73 306 3.0 5.0 0.00 0.04 0.01 88 1020.1
20260904134012 74 336 2.0 5.0 0.00 0.04 0.01 89 1020.2
20260904133519 74 332 3.0 4.0 0.00 0.04 0.01 88 1020.2
20260904133027 74 336 1.0 5.0 0.00 0.04 0.01 89 1020.1
20260904132514 73 336 1.0 8.0 0.00 0.04 0.01 89 1020.2
20260904132021 73 337 3.0 6.0 0.00 0.04 0.01 89 1020.3
20260904131510 74 328 0.0 5.0 0.00 0.04 0.01 89 1020.3
20260904131019 74 328 2.0 5.0 0.00 0.04 0.01 89 1020.3
20260904130548 74 329 2.0 5.0 0.00 0.04 0.01 90 1020.2
20260904130013 73 329 1.0 5.0 0.00 0.04 0.01 89 1020.2
20260904125522 73 322 0.0 5.0 0.00 0.04 0.01 89 1020.2
20260904125032 74 322 2.0 5.0 0.00 0.04 0.01 89 1020.3
20260904124519 74 329 0.0 4.0 0.00 0.04 0.01 89 1020.2
20260904124026 74 330 0.0 5.0 0.00 0.04 0.01 89 1020.1
20260904123515 73 331 2.0 6.0 0.00 0.04 0.01 89 1020.1
20260904123022 73 315 3.0 6.0 0.00 0.04 0.01 89 1020.1
20260904122511 74 341 3.0 6.0 0.00 0.04 0.01 89 1020.2
20260904122038 74 323 2.0 5.0 0.00 0.04 0.01 89 1020.3
20260904121525 74 317 1.0 4.0 0.00 0.04 0.01 89 1020.3
20260904121035 74 317 2.0 3.0 0.00 0.04 0.01 90 1020.3
20260904120542 73 315 0.0 6.0 0.00 0.04 0.01 90 1020.3
20260904120009 73 315 3.0 6.0 0.00 0.04 0.01 90 1020.3
20260904115518 73 275 3.0 6.0 0.00 0.04 0.01 89 1020.3
20260904115025 73 274 2.0 8.0 0.00 0.04 0.01 89 1020.3
20260904114513 73 277 3.0 8.0 0.00 0.04 0.01 89 1020.5
20260904114041 73 287 2.0 8.0 0.00 0.04 0.01 90 1020.4
20260904113527 73 289 3.0 7.0 0.00 0.04 0.01 90 1020.4
20260904113012 73 292 2.0 7.0 0.00 0.04 0.01 91 1020.5
20260904112520 72 291 3.0 7.0 0.00 0.04 0.01 91 1020.5
20260904112009 72 297 3.0 8.0 0.00 0.04 0.01 91 1020.6
20260904111538 72 310 1.0 8.0 0.00 0.04 0.01 92 1020.5
20260904111026 72 304 3.0 6.0 0.00 0.04 0.01 92 1020.7
20260904110514 72 281 2.0 7.0 0.00 0.04 0.01 91 1020.6
20260904110021 72 290 3.0 9.0 0.00 0.04 0.01 91 1020.7
20260904105510 72 273 4.0 9.0 0.00 0.04 0.01 91 1020.7
20260904105016 72 298 3.0 6.0 0.00 0.04 0.01 91 1020.7
20260904104525 72 297 1.0 8.0 0.00 0.04 0.01 91 1020.6
20260904104013 72 295 5.0 9.0 0.00 0.04 0.01 90 1020.6
20260904103542 73 271 3.0 9.0 0.00 0.04 0.01 90 1020.6
20260904103009 73 306 2.0 8.0 0.00 0.04 0.01 91 1020.6
20260904102517 73 296 4.0 9.0 0.00 0.04 0.01 91 1020.6
20260904102046 73 263 4.0 9.0 0.00 0.04 0.01 91 1020.5
20260904101512 72 278 5.0 9.0 0.00 0.04 0.01 91 1020.6
20260904101018 72 292 3.0 9.0 0.00 0.04 0.01 92 1020.7
20260904100526 72 293 3.0 10.0 0.00 0.04 0.01 91 1020.8
20260904100033 72 273 7.0 10.0 0.00 0.04 0.01 90 1020.8
20260904095541 72 271 4.0 11.0 0.00 0.04 0.01 91 1020.8
20260904095048 72 304 5.0 12.0 0.00 0.04 0.01 91 1020.8
20260904094515 72 262 4.0 12.0 0.00 0.04 0.01 91 1020.8
20260904094024 72 295 9.0 12.0 0.00 0.04 0.01 90 1020.6
20260904093510 73 302 8.0 12.0 0.00 0.04 0.01 90 1020.6
20260904093015 73 264 6.0 12.0 0.00 0.04 0.01 89 1020.6
20260904092525 73 293 7.0 12.0 0.00 0.04 0.01 89 1020.5
20260904092011 73 284 6.0 11.0 0.00 0.04 0.01 89 1020.4
20260904091519 73 273 4.0 11.0 0.00 0.04 0.01 89 1020.4
20260904091026 72 265 5.0 11.0 0.00 0.04 0.01 89 1020.4
20260904090515 72 275 2.0 9.0 0.00 0.04 0.01 90 1020.3
20260904090022 71 284 2.0 9.0 0.00 0.04 0.01 91 1020.2
20260904085531 71 319 3.0 9.0 0.00 0.04 0.01 91 1020.2
20260904085016 71 262 3.0 8.0 0.00 0.04 0.01 91 1020.1
20260904084524 70 338 1.0 5.0 0.00 0.04 0.01 92 1020.0
20260904084012 70 350 0.0 4.0 0.00 0.04 0.01 94 1019.9
20260904083541 70 350 1.0 4.0 0.00 0.04 0.01 95 1019.9
20260904083027 69 355 0.0 4.0 0.00 0.04 0.01 97 1019.8
20260904082516 69 355 0.0 4.0 0.00 0.04 0.01 97 1019.7
20260904082023 68 355 0.0 4.0 0.00 0.04 0.01 97 1019.6
20260904081511 68 360 0.0 5.0 0.00 0.04 0.01 98 1019.7
20260904081020 68 360 2.0 5.0 0.00 0.04 0.01 99 1019.7
20260904080528 67 16 0.0 0.0 0.00 0.04 0.01 100 1019.5
20260904080014 67 16 0.0 0.0 0.00 0.04 0.01 100 1019.4
20260904075521 66 16 0.0 0.0 0.00 0.04 0.01 100 1019.5
20260904075013 66 16 0.0 0.0 0.00 0.04 0.01 100 1019.4
20260904074521 66 16 0.0 0.0 0.00 0.04 0.01 100 1019.4
20260904074032 66 16 0.0 0.0 0.00 0.04 0.01 100 1019.3
20260904073536 66 16 0.0 0.0 0.00 0.04 0.01 100 1019.3
20260904073022 66 16 0.0 0.0 0.00 0.04 0.01 100 1019.2
20260904072515 66 16 0.0 0.0 0.00 0.04 0.01 100 1019.2
20260904072024 65 16 0.0 0.0 0.00 0.04 0.01 100 1019.1
20260904071513 65 16 0.0 0.0 0.00 0.04 0.01 100 1019.0
20260904071021 64 16 0.0 0.0 0.00 0.04 0.01 100 1019.1
20260904070528 64 16 0.0 0.0 0.00 0.04 0.01 100 1019.0
20260904070014 63 16 0.0 0.0 0.00 0.04 0.01 100 1018.9
20260904065524 63 16 0.0 0.0 0.00 0.04 0.01 100 1018.9
20260904065012 63 16 0.0 0.0 0.00 0.04 0.01 100 1018.8
20260904064540 63 16 0.0 0.0 0.00 0.04 0.01 100 1018.8
20260904064027 63 16 0.0 0.0 0.00 0.04 0.01 100 1018.7
20260904063515 63 16 0.0 0.0 0.00 0.04 0.01 100 1018.7
20260904063022 63 16 0.0 0.0 0.00 0.04 0.01 100 1018.7
20260904062544 62 16 0.0 0.0 0.00 0.04 0.01 100 1018.5
20260904062032 62 16 0.0 0.0 0.00 0.04 0.01 100 1018.6
20260904061519 62 16 0.0 0.0 0.00 0.04 0.01 100 1018.5
20260904061012 62 16 0.0 0.0 0.00 0.04 0.01 100 1018.5
20260904060520 62 16 0.0 0.0 0.00 0.04 0.01 100 1018.6
20260904060027 62 16 0.0 0.0 0.00 0.04 0.01 100 1018.5
20260904055516 62 16 0.0 0.0 0.00 0.04 0.01 100 1018.4
20260904055018 63 16 0.0 0.0 0.00 0.04 0.01 100 1018.4
20260904054526 63 16 0.0 0.0 0.00 0.04 0.01 100 1018.3
20260904054013 63 16 0.0 0.0 0.00 0.04 0.01 100 1018.3
20260904053521 63 16 0.0 0.0 0.00 0.04 0.01 100 1018.3
20260904053009 63 16 0.0 0.0 0.00 0.04 0.01 100 1018.1
20260904052517 63 16 0.0 0.0 0.04 0.04 0.01 100 1018.1
20260904052025 63 16 0.0 0.0 0.04 0.04 0.01 99 1018.1
20260904051513 63 16 0.0 0.0 0.04 0.04 0.01 99 1018.1
20260904051019 63 16 0.0 0.0 0.04 0.04 0.01 99 1018.0
20260904050529 63 16 0.0 0.0 0.04 0.04 0.01 99 1017.9
20260904050015 63 16 0.0 0.0 0.04 0.04 0.01 99 1017.9
20260904045522 63 16 0.0 0.0 0.04 0.04 0.01 99 1017.9
20260904045010 63 16 0.0 0.0 0.04 0.04 0.01 99 1017.7
20260904044515 62 16 0.0 0.0 0.04 0.04 0.01 99 1017.7
20260904044023 62 16 0.0 0.0 0.04 0.04 0.01 99 1017.7
20260904043511 62 16 0.0 0.0 0.04 0.04 0.01 99 1017.7
20260904043016 62 16 0.0 0.0 0.04 0.04 0.01 98 1017.7
20260904042524 62 16 0.0 0.0 0.00 0.00 0.00 98 1017.7
20260904042012 62 16 0.0 0.0 0.00 0.00 0.00 98 1017.8
20260904041517 62 16 0.0 0.0 0.00 0.00 0.00 98 1017.7
20260904041026 62 16 0.0 0.0 0.00 0.00 0.00 98 1017.8
20260904040513 63 16 0.0 0.0 0.00 0.00 0.00 98 1017.8
20260904040041 63 16 0.0 0.0 0.00 0.00 0.00 98 1017.9
20260904035509 63 16 0.0 0.0 0.00 0.00 0.00 98 1018.0
20260904035014 63 16 0.0 0.0 0.00 0.00 0.00 98 1018.0
20260904034522 63 16 0.0 0.0 0.00 0.00 0.00 98 1018.0
20260904034011 63 16 0.0 0.0 0.00 0.00 0.00 98 1018.0
20260904033539 63 16 0.0 0.0 0.00 0.00 0.00 98 1017.9
20260904033028 63 16 0.0 0.0 0.00 0.00 0.00 98 1018.0
20260904032515 63 16 0.0 0.0 0.00 0.00 0.00 98 1018.1
20260904032023 63 16 0.0 0.0 0.00 0.00 0.00 98 1018.1
20260904031533 63 16 0.0 0.0 0.00 0.00 0.00 98 1018.1
20260904031040 63 16 0.0 0.0 0.00 0.00 0.00 98 1018.2
20260904030528 63 16 0.0 0.0 0.00 0.00 0.00 98 1018.2
20260904030013 63 16 0.0 0.0 0.00 0.00 0.00 98 1018.1
20260904025522 63 16 0.0 0.0 0.00 0.00 0.00 98 1018.1
20260904025010 63 16 0.0 0.0 0.00 0.00 0.00 98 1018.1
20260904024517 63 16 0.0 0.0 0.00 0.00 0.00 98 1018.1
20260904024045 63 16 0.0 0.0 0.00 0.00 0.00 98 1018.1
20260904023532 63 16 0.0 0.0 0.00 0.00 0.00 98 1018.0
20260904023016 63 16 0.0 0.0 0.00 0.00 0.00 97 1018.1
20260904022526 63 16 0.0 0.0 0.00 0.00 0.00 97 1018.1
20260904022013 64 16 0.0 0.0 0.00 0.00 0.00 97 1018.1
20260904021521 64 16 0.0 0.0 0.00 0.00 0.00 97 1018.1
20260904021009 64 16 0.0 0.0 0.00 0.00 0.00 97 1018.1
20260904020517 64 16 0.0 0.0 0.00 0.00 0.00 97 1018.2
20260904020022 64 16 0.0 0.0 0.00 0.00 0.00 97 1018.1
20260904015511 64 16 0.0 0.0 0.00 0.00 0.00 97 1018.1
20260904015017 64 16 0.0 0.0 0.00 0.00 0.00 97 1018.2